Weather History for Scottsbluff, NE

Change the Weather History Date:

Friday, December 7, 2012

  Actual Average Record
Temperature  
Mean Temperature 31 °F 27 °F  
Max Temperature 43 °F 40 °F 68 °F (1939)
Min Temperature 19 °F 13 °F -18 °F (1909)
Degree Days  
Heating Degree Days 34 38  
Month to date heating degree days 155 261  
Since 1 July heating degree days 1458 1826  
Cooling Degree Days 0 0  
Month to date cooling degree days 0 0  
Year to date cooling degree days 1208 724  
Moisture  
Dew Point 20 °F    
Average Humidity 59    
Maximum Humidity 77    
Minimum Humidity 41    
Precipitation  
Precipitation 0.00 in 0.01 in 0.34 in (2007)
Month to date precipitation T 0.11  
Year to date precipitation 6.80 15.39  
Snow  
Snow T in 0.20 in 5.00 in (1936)
Month to date snowfall T 1.5  
Since 1 July snowfall 10.5 10.4  
Snow Depth 0.00 in    
Sea Level Pressure  
Sea Level Pressure 29.92 in    
Wind  
Wind Speed 9 mph (NNE)    
Max Wind Speed 21 mph    
Max Gust Speed 24 mph    
Visibility 10 miles    
Events      
T = Trace of Precipitation, MM = Missing Value Source: NWS Daily Summary

Daily Weather History Graph

Daily Weather History Graph

Search for Another Location

Airport:

Trip Planner

Search our weather history database for the weather conditions in past years. The results will help you decide how hot, cold, wet, or windy it might be!

Date:

Astronomy

Dec. 07, 2012 Rise Set
Actual Time 7:08 AM MST 4:23 PM MST
Civil Twilight 6:37 AM MST 4:54 PM MST
Nautical Twilight 6:02 AM MST 5:29 PM MST
Astronomical Twilight 5:28 AM MST 6:03 PM MST
Moon 12:25 AM MST (12/7) 12:26 PM MST (12/7)
Length of Visible Light 10h 17m
Length of Day
9h 14m
Last Quarter, 38% of the Moon is Illuminated
Dec 7
Last Quarter
Dec 13
New
Dec 19
First Quarter
Dec 28
Full
Jan 4
Last Quarter

Hourly Weather History & Observations

Time (MST) Temp. Windchill Dew Point Humidity Pressure Visibility Wind Dir Wind Speed Gust Speed Precip Events Conditions
12:53 AM 28.9 °F 19.2 °F 21.0 °F 72% 29.87 in 10.0 mi ESE 11.5 mph - N/A   Scattered Clouds
1:53 AM 30.0 °F 22.4 °F 19.9 °F 66% 29.86 in 10.0 mi ESE 8.1 mph - N/A   Partly Cloudy
2:53 AM 34.0 °F 26.6 °F 18.0 °F 52% 29.81 in 10.0 mi SE 9.2 mph - N/A   Mostly Cloudy
3:53 AM 36.0 °F 28.5 °F 18.0 °F 48% 29.78 in 10.0 mi South 10.4 mph - N/A   Clear
4:53 AM 32.0 °F 25.6 °F 19.4 °F 60% 29.75 in 10.0 mi ESE 6.9 mph - N/A   Clear
5:53 AM 28.9 °F 21.1 °F 19.0 °F 67% 29.86 in 10.0 mi North 8.1 mph - N/A   Clear
6:53 AM 30.0 °F 23.2 °F 21.0 °F 69% 29.90 in 10.0 mi West 6.9 mph - N/A   Clear
7:53 AM 33.1 °F 22.6 °F 23.0 °F 66% 29.94 in 10.0 mi WNW 16.1 mph 23.0 mph N/A   Overcast
8:53 AM 35.1 °F 25.2 °F 24.1 °F 64% 29.96 in 10.0 mi NW 16.1 mph 20.7 mph N/A   Overcast
9:53 AM 37.0 °F 28.1 °F 24.1 °F 59% 29.98 in 10.0 mi NW 15.0 mph 23.0 mph N/A   Overcast
10:53 AM 39.0 °F 32.3 °F 24.1 °F 55% 29.96 in 10.0 mi NW 10.4 mph - N/A   Overcast
11:53 AM 41.0 °F 33.5 °F 23.0 °F 49% 29.93 in 10.0 mi WNW 13.8 mph - N/A   Mostly Cloudy
12:53 PM 41.0 °F 34.7 °F 21.9 °F 47% 29.93 in 10.0 mi WNW 10.4 mph - N/A   Partly Cloudy
1:53 PM 41.0 °F 33.5 °F 19.9 °F 43% 29.91 in 10.0 mi NW 13.8 mph - N/A   Clear
2:53 PM 41.0 °F 33.5 °F 19.9 °F 43% 29.91 in 10.0 mi NW 13.8 mph - N/A   Partly Cloudy
3:53 PM 39.0 °F 33.4 °F 19.9 °F 46% 29.91 in 10.0 mi NNW 8.1 mph - N/A   Clear
4:53 PM 34.0 °F - 19.0 °F 54% 29.95 in 10.0 mi Calm Calm - N/A   Clear
5:53 PM 32.0 °F 26.4 °F 19.4 °F 60% 29.92 in 10.0 mi NNW 5.8 mph - N/A   Clear
6:53 PM 27.0 °F 23.0 °F 16.0 °F 63% 30.02 in 10.0 mi ESE 3.5 mph - N/A   Overcast
7:53 PM 23.0 °F 18.4 °F 15.1 °F 72% 30.02 in 10.0 mi East 3.5 mph - N/A   Clear
8:53 PM 21.9 °F 15.7 °F 15.1 °F 75% 30.02 in 10.0 mi East 4.6 mph - N/A   Clear
9:53 PM 24.1 °F 19.7 °F 17.1 °F 75% 29.99 in 10.0 mi SE 3.5 mph - N/A   Clear
10:53 PM 21.0 °F 13.4 °F 15.1 °F 78% 29.98 in 10.0 mi East 5.8 mph - N/A   Clear
11:53 PM 23.0 °F 14.7 °F 17.1 °F 78% 29.95 in 10.0 mi ESE 6.9 mph - N/A   Partly Cloudy